When you browse on this site, cookies collect data to enhance your experience and personalize the content and advertising you see.
Visit our Privacy Policy to learn more. By continuing to use the site, you agree to this use of cookies and data.
  • In France
  • List of Countries
  • For 7 days
  • Water Temperature
  • Weather Map
  • Weather Widgets
  • user-avatar
    Login

    Hourly Weather Dolny Kubin

    Today, 24 August, Saturday

    Time Temperature Precipitation Wind Pressure Humidity
    00:00 +16°C° 0 mm 1 mps 709 mmHg 94%
    01:00 +15°C° 0 mm 0 mps 709 mmHg 94%
    02:00 +15°C° 0 mm 0 mps 709 mmHg 94%
    03:00 +16°C° 0 mm 1 mps 709 mmHg 94%
    04:00 +15°C° 0 mm 1 mps 709 mmHg 93%
    05:00 +18°C° 0 mm 1 mps 709 mmHg 91%
    06:00 +17°C° 0 mm 0 mps 709 mmHg 90%
    07:00 +20°C° 0 mm 1 mps 710 mmHg 86%
    08:00 +22°C° 0 mm 1 mps 710 mmHg 77%
    09:00 +24°C° 0 mm 1 mps 710 mmHg 68%
    10:00 +26°C° 0 mm 1 mps 711 mmHg 59%
    11:00 +27°C° 0.1 mm 1 mps 710 mmHg 56%
    12:00 +28°C° 0.1 mm 1 mps 710 mmHg 54%
    13:00 +29°C° 0.1 mm 1 mps 710 mmHg 52%
    14:00 +28°C° 0.8 mm 1 mps 710 mmHg 58%
    15:00 +27°C° 0.8 mm 1 mps 709 mmHg 64%
    16:00 +26°C° 0.8 mm 1 mps 709 mmHg 71%
    17:00 +24°C° 0.4 mm 1 mps 709 mmHg 76%
    18:00 +22°C° 0.4 mm 1 mps 708 mmHg 82%
    19:00 +20°C° 0.4 mm 1 mps 708 mmHg 88%
    20:00 +20°C° 0.1 mm 1 mps 708 mmHg 89%
    21:00 +19°C° 0.1 mm 1 mps 708 mmHg 90%
    22:00 +19°C° 0.1 mm 1 mps 708 mmHg 91%
    23:00 +18°C° 0 mm 1 mps 708 mmHg 91%

    Tomorrow, 25 August, Sunday

    Time Temperature Precipitation Wind Pressure Humidity
    00:00 +18°C° 0 mm 1 mps 708 mmHg 92%
    01:00 +18°C° 0 mm 1 mps 708 mmHg 92%
    02:00 +18°C° 0 mm 1 mps 707 mmHg 91%
    03:00 +16°C° 0 mm 1 mps 707 mmHg 91%
    04:00 +16°C° 0 mm 1 mps 707 mmHg 90%
    05:00 +16°C° 0 mm 0 mps 707 mmHg 88%
    06:00 +18°C° 0 mm 0 mps 708 mmHg 85%
    07:00 +19°C° 0 mm 0 mps 708 mmHg 83%
    08:00 +21°C° 0 mm 0 mps 708 mmHg 73%
    09:00 +24°C° 0 mm 0 mps 709 mmHg 63%
    10:00 +26°C° 0 mm 0 mps 709 mmHg 53%
    11:00 +27°C° 0 mm 0 mps 709 mmHg 51%
    12:00 +27°C° 0 mm 0 mps 709 mmHg 48%
    13:00 +28°C° 0 mm 0 mps 709 mmHg 46%
    14:00 +28°C° 0.4 mm 1 mps 708 mmHg 54%
    15:00 +27°C° 0.4 mm 1 mps 708 mmHg 61%
    16:00 +25°C° 0.4 mm 1 mps 707 mmHg 69%
    17:00 +23°C° 1.2 mm 1 mps 707 mmHg 76%
    18:00 +21°C° 1.2 mm 1 mps 707 mmHg 83%
    19:00 +20°C° 1.2 mm 1 mps 707 mmHg 90%
    20:00 +19°C° 0 mm 1 mps 707 mmHg 90%
    21:00 +19°C° 0 mm 1 mps 707 mmHg 89%
    22:00 +19°C° 0 mm 1 mps 707 mmHg 89%
    23:00 +18°C° 0 mm 1 mps 707 mmHg 89%

    Day after tomorrow, 26 August, Monday

    Time Temperature Precipitation Wind Pressure Humidity
    00:00 +18°C° 0 mm 1 mps 707 mmHg 88%
    01:00 +18°C° 0 mm 1 mps 707 mmHg 88%
    02:00 +18°C° 0 mm 1 mps 707 mmHg 88%
    03:00 +18°C° 0 mm 1 mps 707 mmHg 87%
    04:00 +18°C° 0 mm 1 mps 706 mmHg 87%
    05:00 +17°C° 0 mm 0 mps 707 mmHg 85%
    06:00 +18°C° 0 mm 0 mps 707 mmHg 82%
    07:00 +19°C° 0 mm 0 mps 707 mmHg 80%
    08:00 +21°C° 0.1 mm 0 mps 707 mmHg 74%
    09:00 +23°C° 0.1 mm 0 mps 708 mmHg 68%
    10:00 +24°C° 0.1 mm 0 mps 708 mmHg 62%
    11:00 +25°C° 0.4 mm 0 mps 708 mmHg 60%
    12:00 +25°C° 0.4 mm 0 mps 708 mmHg 59%
    13:00 +27°C° 0.4 mm 1 mps 708 mmHg 57%
    14:00 +26°C° 0.3 mm 1 mps 708 mmHg 64%
    15:00 +25°C° 0.3 mm 1 mps 707 mmHg 71%
    16:00 +24°C° 0.3 mm 1 mps 707 mmHg 78%
    17:00 +23°C° 0 mm 1 mps 706 mmHg 82%
    18:00 +21°C° 0 mm 1 mps 706 mmHg 85%
    19:00 +20°C° 0 mm 1 mps 706 mmHg 88%
    20:00 +20°C° 0.1 mm 1 mps 706 mmHg 87%
    21:00 +19°C° 0.1 mm 1 mps 706 mmHg 86%
    22:00 +19°C° 0.1 mm 1 mps 706 mmHg 86%
    23:00 +19°C° 0.1 mm 1 mps 706 mmHg 85%

    27 August, Tuesday

    Time Temperature Precipitation Wind Pressure Humidity
    00:00 +18°C° 0.1 mm 1 mps 706 mmHg 84%
    01:00 +18°C° 0.1 mm 1 mps 706 mmHg 84%
    02:00 +18°C° 0.1 mm 1 mps 706 mmHg 83%
    03:00 +18°C° 0.1 mm 1 mps 706 mmHg 83%
    04:00 +18°C° 0.1 mm 1 mps 706 mmHg 82%
    05:00 +19°C° 0 mm 1 mps 706 mmHg 80%
    06:00 +21°C° 0 mm 1 mps 706 mmHg 77%
    07:00 +20°C° 0 mm 0 mps 707 mmHg 75%
    08:00 +22°C° 0 mm 0 mps 707 mmHg 66%
    09:00 +25°C° 0 mm 0 mps 708 mmHg 57%
    10:00 +27°C° 0 mm 0 mps 708 mmHg 49%
    11:00 +28°C° 0 mm 0 mps 708 mmHg 47%
    12:00 +28°C° 0 mm 0 mps 708 mmHg 44%
    13:00 +29°C° 0 mm 0 mps 708 mmHg 42%
    14:00 +30°C° 0.3 mm 1 mps 708 mmHg 49%
    15:00 +29°C° 0.3 mm 1 mps 707 mmHg 56%
    16:00 +27°C° 0.3 mm 1 mps 707 mmHg 63%
    17:00 +25°C° 0.5 mm 1 mps 706 mmHg 69%
    18:00 +23°C° 0.5 mm 1 mps 706 mmHg 76%
    19:00 +22°C° 0.5 mm 1 mps 706 mmHg 82%
    20:00 +21°C° 0.4 mm 1 mps 706 mmHg 83%
    21:00 +20°C° 0.4 mm 1 mps 706 mmHg 85%
    22:00 +20°C° 0.4 mm 1 mps 706 mmHg 86%
    23:00 +19°C° 0 mm 1 mps 706 mmHg 86%

    28 August, Wednesday

    Time Temperature Precipitation Wind Pressure Humidity
    00:00 +19°C° 0 mm 1 mps 706 mmHg 86%
    01:00 +19°C° 0 mm 1 mps 706 mmHg 86%
    02:00 +19°C° 0 mm 1 mps 706 mmHg 86%
    03:00 +19°C° 0 mm 1 mps 706 mmHg 85%
    04:00 +19°C° 0 mm 1 mps 706 mmHg 85%
    05:00 +20°C° 0 mm 1 mps 706 mmHg 82%
    06:00 +21°C° 0 mm 1 mps 706 mmHg 80%
    07:00 +22°C° 0 mm 1 mps 706 mmHg 77%
    08:00 +25°C° 0 mm 1 mps 706 mmHg 67%
    09:00 +27°C° 0 mm 1 mps 707 mmHg 58%
    10:00 +29°C° 0 mm 1 mps 707 mmHg 48%
    11:00 +29°C° 0.1 mm 1 mps 707 mmHg 49%
    12:00 +29°C° 0.1 mm 1 mps 706 mmHg 49%
    13:00 +29°C° 0.1 mm 1 mps 706 mmHg 49%
    14:00 +29°C° 0.2 mm 1 mps 706 mmHg 52%
    15:00 +28°C° 0.2 mm 1 mps 705 mmHg 56%
    16:00 +27°C° 0.2 mm 1 mps 705 mmHg 59%
    17:00 +25°C° 0.4 mm 1 mps 705 mmHg 68%
    18:00 +23°C° 0.4 mm 1 mps 704 mmHg 76%
    19:00 +20°C° 0.4 mm 1 mps 704 mmHg 85%
    20:00 +20°C° 0.1 mm 1 mps 704 mmHg 85%
    21:00 +20°C° 0.1 mm 1 mps 704 mmHg 85%
    22:00 +19°C° 0.1 mm 1 mps 704 mmHg 85%
    23:00 +19°C° 0 mm 1 mps 704 mmHg 84%

    29 August, Thursday

    Time Temperature Precipitation Wind Pressure Humidity
    00:00 +19°C° 0 mm 1 mps 703 mmHg 84%
    01:00 +19°C° 0 mm 1 mps 703 mmHg 83%
    02:00 +19°C° 0 mm 1 mps 703 mmHg 83%
    03:00 +18°C° 0 mm 1 mps 703 mmHg 82%
    04:00 +18°C° 0 mm 1 mps 703 mmHg 81%
    05:00 +20°C° 0 mm 1 mps 703 mmHg 79%
    06:00 +21°C° 0 mm 1 mps 704 mmHg 76%
    07:00 +22°C° 0 mm 1 mps 704 mmHg 74%
    08:00 +24°C° 0 mm 1 mps 704 mmHg 64%
    09:00 +27°C° 0 mm 1 mps 705 mmHg 54%
    10:00 +29°C° 0 mm 1 mps 705 mmHg 44%
    11:00 +29°C° 0 mm 1 mps 705 mmHg 44%
    12:00 +29°C° 0 mm 1 mps 705 mmHg 44%
    13:00 +29°C° 0 mm 1 mps 705 mmHg 44%
    14:00 +28°C° 0 mm 1 mps 704 mmHg 47%
    15:00 +28°C° 0 mm 1 mps 704 mmHg 49%
    16:00 +28°C° 0 mm 1 mps 704 mmHg 52%
    17:00 +26°C° 0 mm 1 mps 704 mmHg 58%
    18:00 +23°C° 0 mm 1 mps 704 mmHg 63%
    19:00 +21°C° 0 mm 1 mps 703 mmHg 69%
    20:00 +21°C° 0 mm 1 mps 703 mmHg 70%
    21:00 +20°C° 0 mm 1 mps 703 mmHg 71%
    22:00 +20°C° 0 mm 1 mps 704 mmHg 72%
    23:00 +19°C° 0 mm 1 mps 704 mmHg 73%
    Show more